Weather History for KNDZ - February, 2013

Change the Weather History Date:

Thursday, February 7, 2013

  Actual Average (KNSE) Record (KNSE)
Temperature  
Mean Temperature 65 °F -  
Max Temperature 73 °F 60 °F 78 °F (1999)
Min Temperature 55 °F 43 °F 28 °F (2014)
Growing Degree Days 15 (Base 50)    
Moisture  
Dew Point 58 °F    
Average Humidity 87    
Maximum Humidity 96    
Minimum Humidity 55    
Precipitation  
Precipitation 2.26 in - - ()
Sea Level Pressure  
Sea Level Pressure 29.86 in    
Wind  
Wind Speed 11 mph (NNE)    
Max Wind Speed 21 mph    
Max Gust Speed 26 mph    
Visibility 7 miles    
Events Rain    
Averages and records for this station are not official NWS values.
T = Trace of Precipitation, MM = Missing Value Source: NWS Daily Summary

Daily Weather History Graph

Daily Weather History Graph

Search for Another Location

Airport or City:

Trip Planner

Search our weather history database for the weather conditions in past years. The results will help you decide how hot, cold, wet, or windy it might be!

Date:

Astronomy

Feb. 07, 2013 Rise Set
Actual Time 6:35 AM CST 5:29 PM CST
Civil Twilight 6:10 AM CST 5:54 PM CST
Nautical Twilight 5:41 AM CST 6:23 PM CST
Astronomical Twilight 5:13 AM CST 6:51 PM CST
Moon 4:08 AM CST (2/7) 2:59 PM CST (2/7)
Length of Visible Light 11h 44m
Length of Day
10h 54m
Waning Crescent, 9% of the Moon is Illuminated
Feb 7
Waning Crescent
Feb 10
New
Feb 17
First Quarter
Feb 25
Full
Mar 4
Last Quarter

Hourly Weather History & Observations

Time (CST) Temp. Dew Point Humidity Pressure Visibility Wind Dir Wind Speed Gust Speed Precip Events Conditions
12:56 AM 57.9 °F 55.9 °F 93% 30.00 in 10.0 mi ENE 5.8 mph - N/A   Overcast
1:56 AM 57.0 °F 55.0 °F 93% 29.97 in 10.0 mi ENE 6.9 mph - N/A   Overcast
2:56 AM 57.9 °F 55.9 °F 93% 29.93 in 10.0 mi NE 4.6 mph - 0.02 in   Overcast
3:56 AM 59.0 °F 55.9 °F 90% 29.94 in 10.0 mi ENE 6.9 mph - 0.03 in Rain Light Rain
4:56 AM 57.9 °F 55.9 °F 93% 29.91 in 7.0 mi East 11.5 mph - 0.06 in Rain Rain
5:29 AM 59.0 °F 57.2 °F 94% 29.92 in 9.0 mi SE 15.0 mph - 0.08 in Rain Light Rain
5:56 AM 60.1 °F 57.9 °F 93% 29.88 in 10.0 mi ESE 12.7 mph - 0.11 in Rain Light Rain
6:13 AM 60.8 °F 57.2 °F 88% 29.90 in 7.0 mi ESE 16.1 mph - 0.04 in Rain Rain
6:42 AM 60.8 °F 57.2 °F 88% 29.89 in 6.0 mi East 12.7 mph - 0.15 in Rain Heavy Rain
6:56 AM 60.1 °F 59.0 °F 96% 29.83 in 5.0 mi East 13.8 mph - 0.23 in Rain Heavy Rain
7:07 AM 60.8 °F 59.0 °F 94% 29.86 in 4.0 mi East 15.0 mph - 0.05 in Rain Rain
7:33 AM 60.8 °F 59.0 °F 94% 29.85 in 2.5 mi East 16.1 mph - 0.23 in Rain Heavy Rain
7:40 AM 60.8 °F 59.0 °F 94% 29.85 in 2.5 mi East 15.0 mph - 0.30 in Rain Heavy Rain
7:56 AM 61.0 °F 59.0 °F 93% 29.80 in 3.0 mi ENE 15.0 mph - 0.43 in Rain Heavy Rain
8:03 AM 60.8 °F 59.0 °F 94% 29.84 in 3.0 mi NE 9.2 mph 18.4 mph 0.06 in Rain Heavy Rain
8:23 AM 60.8 °F 59.0 °F 94% 29.83 in 1.8 mi East 9.2 mph - 0.30 in Rain Heavy Rain
8:33 AM 60.8 °F 59.0 °F 94% 29.83 in 2.0 mi ENE 11.5 mph - 0.48 in Rain Heavy Rain
8:35 AM 60.8 °F 59.0 °F 94% 29.84 in 1.8 mi ENE 10.4 mph - 0.51 in Rain Heavy Rain
8:45 AM 60.8 °F 59.0 °F 94% 29.83 in 3.0 mi East 10.4 mph - 0.59 in Rain Heavy Rain
8:56 AM 61.0 °F 59.0 °F 93% 29.80 in 7.0 mi ENE 13.8 mph - 0.61 in Rain Rain
9:04 AM 60.8 °F 59.0 °F 94% 29.84 in 2.0 mi NNE 11.5 mph - 0.17 in Rain Heavy Rain
9:08 AM 60.8 °F 59.0 °F 94% 29.87 in 1.8 mi NW 12.7 mph - 0.19 in Rain Heavy Rain
9:18 AM 60.8 °F 59.0 °F 94% 29.85 in 1.0 mi North 16.1 mph 23.0 mph 0.50 in Rain Heavy Rain
9:29 AM 60.8 °F 57.2 °F 88% 29.83 in 3.0 mi North 19.6 mph - 0.55 in Rain Heavy Rain
9:43 AM 60.8 °F 57.2 °F 88% 29.87 in 1.8 mi NNW 20.7 mph 25.3 mph 0.73 in Rain Heavy Rain
9:56 AM 61.0 °F 59.0 °F 93% 29.82 in 6.0 mi North 19.6 mph 25.3 mph 0.77 in Rain Light Rain
10:01 AM 60.8 °F 59.0 °F 94% 29.85 in 9.0 mi North 19.6 mph 26.5 mph 0.00 in Rain Light Rain
10:56 AM 62.1 °F 57.9 °F 86% 29.82 in 10.0 mi North 17.3 mph 25.3 mph 0.00 in   Overcast
11:51 AM 64.4 °F 59.0 °F 83% 29.84 in 10.0 mi NE 15.0 mph 24.2 mph N/A   Overcast
11:56 AM 64.9 °F 59.0 °F 81% 29.80 in 10.0 mi NE 18.4 mph 25.3 mph N/A   Overcast
12:56 PM 70.0 °F 59.0 °F 68% 29.78 in 10.0 mi NE 10.4 mph - N/A   Clear
1:56 PM 73.0 °F 57.9 °F 59% 29.79 in 10.0 mi NNW 9.2 mph - N/A   Clear
2:56 PM 73.9 °F 57.0 °F 55% 29.79 in 10.0 mi NW 10.4 mph - N/A   Clear
3:56 PM 72.0 °F 57.0 °F 59% 29.80 in 10.0 mi NW 8.1 mph - N/A   Mostly Cloudy
4:56 PM 71.1 °F 55.9 °F 59% 29.81 in 10.0 mi NW 8.1 mph - N/A   Clear
5:56 PM 66.9 °F 57.0 °F 70% 29.84 in 10.0 mi NW 6.9 mph - N/A   Clear
6:56 PM 64.0 °F 57.0 °F 78% 29.86 in 10.0 mi NW 6.9 mph - N/A   Partly Cloudy
7:56 PM 63.0 °F 57.0 °F 81% 29.88 in 10.0 mi NW 5.8 mph - N/A   Mostly Cloudy
8:56 PM 60.1 °F 55.9 °F 86% 29.90 in 10.0 mi WNW 3.5 mph - N/A   Clear
9:56 PM 57.9 °F 55.0 °F 90% 29.90 in 10.0 mi NNW 5.8 mph - N/A   Clear
10:56 PM 57.0 °F 54.0 °F 89% 29.90 in 10.0 mi NNW 4.6 mph - N/A   Clear
11:56 PM 55.0 °F 53.1 °F 93% 29.91 in 10.0 mi NW 3.5 mph - N/A   Clear